Location: Newark
(45.2862°N, 9.8850°E)
Time: 06:52:08
(UTC+00:00)

N. Korean satellite - Pass Details

Date: 16 December 2019
Orbit: 454 x 508 km, 97.2° (Epoch: 20 January)

Event Time Altitude Azimuth Distance (km) Brightness Sun altitude
Rises 16:11:05 0° 162° (SSE) 2,594 10.4 -5.8°
Reaches altitude 10° 16:13:10 10° 161° (SSE) 1,710 9.5 -6.1°
Maximum altitude 16:16:51 75° 76° (ENE) 523 6.6 -6.7°
Drops below altitude 10° 16:20:31 10° 351° (N) 1,702 9.2 -7.3°
Sets 16:22:35 0° 350° (N) 2,581 10.1 -7.6°
